Time,TemperatureF,DewpointF,PressureIn,WindDirection,WindDirectionDegrees,WindSpeedMPH,WindSpeedGustMPH,Humidity,HourlyPrecipIn,Conditions,Clouds,dailyrainin,SoftwareType,DateUTC
2013-08-31 00:06:00,72.1,71.8,29.77,SSE,157,0.0,-999.0,99,-99.99,,,0.00,Acu-Link.com,2013-08-31 04:06:00,
2013-08-31 00:22:00,72.1,71.8,29.76,NE,45,0.0,-999.0,99,-99.99,,,0.00,Acu-Link.com,2013-08-31 04:22:00,
2013-08-31 00:37:00,72.1,71.8,29.77,NE,45,0.0,-999.0,99,-99.99,,,0.00,Acu-Link.com,2013-08-31 04:37:00,
2013-08-31 00:52:00,72.0,71.7,29.77,NE,45,0.0,-999.0,99,-99.99,,,0.00,Acu-Link.com,2013-08-31 04:52:00,
2013-08-31 01:07:00,72.0,71.7,29.77,NE,45,0.0,-999.0,99,-99.99,,,0.00,Acu-Link.com,2013-08-31 05:07:00,
2013-08-31 01:22:00,71.8,71.5,29.77,SSE,157,0.0,-999.0,99,-99.99,,,0.00,Acu-Link.com,2013-08-31 05:22:00,
2013-08-31 01:37:00,71.6,71.3,29.76,SSE,157,0.0,-999.0,99,-99.99,,,0.00,Acu-Link.com,2013-08-31 05:37:00,
2013-08-31 01:52:00,71.4,71.1,29.77,SSE,157,0.0,-999.0,99,-99.99,,,0.00,Acu-Link.com,2013-08-31 05:52:00,
2013-08-31 02:07:00,71.2,70.9,29.76,SE,135,0.0,-999.0,99,-99.99,,,0.00,Acu-Link.com,2013-08-31 06:07:00,
2013-08-31 02:22:00,71.1,70.8,29.76,SE,135,0.0,-999.0,99,-99.99,,,0.00,Acu-Link.com,2013-08-31 06:22:00,
2013-08-31 02:37:00,70.9,70.6,29.77,SSE,157,0.0,-999.0,99,-99.99,,,0.00,Acu-Link.com,2013-08-31 06:37:00,
2013-08-31 02:53:00,71.1,70.8,29.78,SSE,157,0.0,-999.0,99,-99.99,,,0.00,Acu-Link.com,2013-08-31 06:53:00,
2013-08-31 03:08:00,71.1,70.8,29.77,ESE,112,0.0,-999.0,99,-99.99,,,0.00,Acu-Link.com,2013-08-31 07:08:00,
2013-08-31 03:23:00,71.2,70.9,29.77,ESE,112,0.0,-999.0,99,-99.99,,,0.00,Acu-Link.com,2013-08-31 07:23:00,
2013-08-31 03:38:00,71.4,71.1,29.77,ESE,112,0.0,-999.0,99,-99.99,,,0.00,Acu-Link.com,2013-08-31 07:38:00,
2013-08-31 03:53:00,71.6,71.3,29.77,SSE,157,0.0,-999.0,99,-99.99,,,0.00,Acu-Link.com,2013-08-31 07:53:00,
2013-08-31 04:08:00,72.0,71.7,29.77,SSE,157,0.0,-999.0,99,-99.99,,,0.00,Acu-Link.com,2013-08-31 08:08:00,
2013-08-31 04:24:00,72.0,71.7,29.76,SSE,157,0.0,-999.0,99,-99.99,,,0.00,Acu-Link.com,2013-08-31 08:24:00,
2013-08-31 04:39:00,72.0,71.7,29.76,SSE,157,0.0,-999.0,99,-99.99,,,0.00,Acu-Link.com,2013-08-31 08:39:00,
2013-08-31 04:54:00,72.0,71.7,29.76,SSE,157,0.0,-999.0,99,-99.99,,,0.00,Acu-Link.com,2013-08-31 08:54:00,
2013-08-31 05:09:00,72.1,71.8,29.76,SE,135,0.0,-999.0,99,-99.99,,,0.00,Acu-Link.com,2013-08-31 09:09:00,
2013-08-31 05:24:00,72.5,72.2,29.76,SE,135,0.0,-999.0,99,-99.99,,,0.00,Acu-Link.com,2013-08-31 09:24:00,
2013-08-31 05:39:00,72.1,71.8,29.77,SE,135,0.0,-999.0,99,-99.99,,,0.00,Acu-Link.com,2013-08-31 09:39:00,
2013-08-31 05:55:00,72.1,71.8,29.78,SE,135,0.0,-999.0,99,-99.99,,,0.00,Acu-Link.com,2013-08-31 09:55:00,
2013-08-31 06:10:00,72.1,71.8,29.78,SSE,157,0.0,-999.0,99,-99.99,,,0.00,Acu-Link.com,2013-08-31 10:10:00,
2013-08-31 06:25:00,72.1,71.8,29.77,SSE,157,0.0,-999.0,99,-99.99,,,0.00,Acu-Link.com,2013-08-31 10:25:00,
2013-08-31 06:40:00,72.0,71.7,29.77,SSE,157,0.0,-999.0,99,-99.99,,,0.00,Acu-Link.com,2013-08-31 10:40:00,
2013-08-31 06:55:00,72.0,71.7,29.77,ESE,112,0.0,-999.0,99,-99.99,,,0.00,Acu-Link.com,2013-08-31 10:55:00,
2013-08-31 07:10:00,72.0,71.7,29.78,SSE,157,0.0,-999.0,99,-99.99,,,0.00,Acu-Link.com,2013-08-31 11:10:00,
2013-08-31 07:25:00,72.1,71.8,29.78,SSE,157,0.0,-999.0,99,-99.99,,,0.00,Acu-Link.com,2013-08-31 11:25:00,
2013-08-31 07:40:00,72.3,72.0,29.78,NE,45,0.0,-999.0,99,-99.99,,,0.00,Acu-Link.com,2013-08-31 11:40:00,
2013-08-31 07:55:00,72.7,72.4,29.78,SSE,157,0.0,-999.0,99,-99.99,,,0.00,Acu-Link.com,2013-08-31 11:55:00,
2013-08-31 08:11:00,72.7,72.4,29.78,SSE,157,0.0,-999.0,99,-99.99,,,0.00,Acu-Link.com,2013-08-31 12:11:00,
2013-08-31 08:26:00,72.5,72.2,29.77,SSE,157,0.0,-999.0,99,-99.99,,,0.00,Acu-Link.com,2013-08-31 12:26:00,
2013-08-31 08:41:00,73.0,72.7,29.79,SSE,157,0.0,-999.0,99,-99.99,,,0.00,Acu-Link.com,2013-08-31 12:41:00,
2013-08-31 08:56:00,73.6,73.3,29.79,West,270,0.0,-999.0,99,-99.99,,,0.00,Acu-Link.com,2013-08-31 12:56:00,
2013-08-31 09:11:00,74.7,74.4,29.78,South,180,0.0,-999.0,99,-99.99,,,0.00,Acu-Link.com,2013-08-31 13:11:00,
2013-08-31 09:26:00,75.6,75.3,29.78,SSE,157,0.0,-999.0,99,-99.99,,,0.00,Acu-Link.com,2013-08-31 13:26:00,
2013-08-31 09:41:00,76.3,76.0,29.78,SSE,157,0.0,-999.0,99,-99.99,,,0.00,Acu-Link.com,2013-08-31 13:41:00,
2013-08-31 09:56:00,77.2,76.9,29.79,SE,135,0.0,-999.0,99,-99.99,,,0.00,Acu-Link.com,2013-08-31 13:56:00,
2013-08-31 10:11:00,77.9,77.3,29.79,NNW,337,0.0,-999.0,98,-99.99,,,0.00,Acu-Link.com,2013-08-31 14:11:00,
2013-08-31 10:26:00,78.3,77.4,29.80,NW,315,0.0,-999.0,97,-99.99,,,0.00,Acu-Link.com,2013-08-31 14:26:00,
2013-08-31 10:42:00,79.0,77.1,29.80,SSE,157,2.7,-999.0,94,-99.99,,,0.00,Acu-Link.com,2013-08-31 14:42:00,
2013-08-31 10:57:00,80.2,78.3,29.80,East,90,0.0,-999.0,94,-99.99,,,0.00,Acu-Link.com,2013-08-31 14:57:00,
2013-08-31 11:12:00,81.7,78.8,29.80,South,180,0.0,-999.0,91,-99.99,,,0.00,Acu-Link.com,2013-08-31 15:12:00,
2013-08-31 11:27:00,82.2,79.0,29.80,SE,135,2.2,-999.0,90,-99.99,,,0.00,Acu-Link.com,2013-08-31 15:27:00,
2013-08-31 11:42:00,82.2,79.0,29.79,SSE,157,1.1,-999.0,90,-99.99,,,0.00,Acu-Link.com,2013-08-31 15:42:00,
2013-08-31 11:57:00,82.9,79.3,29.79,NNW,337,2.2,-999.0,89,-99.99,,,0.00,Acu-Link.com,2013-08-31 15:57:00,
2013-08-31 12:12:00,81.0,77.8,29.79,NNE,22,3.2,-999.0,90,-99.99,,,0.00,Acu-Link.com,2013-08-31 16:12:00,
2013-08-31 12:28:00,82.4,79.2,29.78,SSE,157,0.0,-999.0,90,-99.99,,,0.00,Acu-Link.com,2013-08-31 16:28:00,
2013-08-31 12:43:00,83.8,79.1,29.78,WNW,292,0.0,-999.0,86,-99.99,,,0.00,Acu-Link.com,2013-08-31 16:43:00,
2013-08-31 12:58:00,84.6,80.3,29.77,NW,315,2.2,-999.0,87,-99.99,,,0.00,Acu-Link.com,2013-08-31 16:58:00,
2013-08-31 13:14:00,86.2,79.7,29.77,SSE,157,2.2,-999.0,81,-99.99,,,0.00,Acu-Link.com,2013-08-31 17:14:00,
2013-08-31 13:29:00,87.1,78.2,29.76,NNE,22,2.7,-999.0,75,-99.99,,,0.00,Acu-Link.com,2013-08-31 17:29:00,
2013-08-31 13:44:00,88.2,79.7,29.75,SE,135,1.1,-999.0,76,-99.99,,,0.00,Acu-Link.com,2013-08-31 17:44:00,
2013-08-31 13:59:00,90.3,78.7,29.75,SSE,157,2.2,-999.0,69,-99.99,,,0.00,Acu-Link.com,2013-08-31 17:59:00,
2013-08-31 14:14:00,89.6,78.9,29.74,West,270,0.0,-999.0,71,-99.99,,,0.00,Acu-Link.com,2013-08-31 18:14:00,
2013-08-31 14:29:00,90.0,79.7,29.73,WNW,292,2.7,-999.0,72,-99.99,,,0.00,Acu-Link.com,2013-08-31 18:29:00,
2013-08-31 14:44:00,90.0,76.6,29.72,NNW,337,3.2,-999.0,65,-99.99,,,0.00,Acu-Link.com,2013-08-31 18:44:00,
2013-08-31 14:59:00,89.4,77.4,29.71,ENE,67,1.1,-999.0,68,-99.99,,,0.00,Acu-Link.com,2013-08-31 18:59:00,
2013-08-31 15:14:00,90.9,77.9,29.70,West,270,3.2,-999.0,66,-99.99,,,0.00,Acu-Link.com,2013-08-31 19:14:00,
2013-08-31 15:30:00,90.9,77.5,29.69,SSE,157,0.0,-999.0,65,-99.99,,,0.00,Acu-Link.com,2013-08-31 19:30:00,
2013-08-31 15:45:00,91.4,75.5,29.68,ENE,67,1.7,-999.0,60,-99.99,,,0.00,Acu-Link.com,2013-08-31 19:45:00,
2013-08-31 16:00:00,92.1,75.7,29.67,North,0,1.1,-999.0,59,-99.99,,,0.00,Acu-Link.com,2013-08-31 20:00:00,
2013-08-31 16:15:00,91.4,77.0,29.66,West,270,3.2,-999.0,63,-99.99,,,0.00,Acu-Link.com,2013-08-31 20:15:00,
2013-08-31 16:30:00,91.4,77.9,29.67,SSE,157,1.7,-999.0,65,-99.99,,,0.00,Acu-Link.com,2013-08-31 20:30:00,
2013-08-31 16:45:00,92.1,75.2,29.67,WSW,247,0.0,-999.0,58,-99.99,,,0.00,Acu-Link.com,2013-08-31 20:45:00,
2013-08-31 17:00:00,94.1,75.4,29.68,SE,135,1.1,-999.0,55,-99.99,,,0.00,Acu-Link.com,2013-08-31 21:00:00,
2013-08-31 17:15:00,90.0,77.5,29.67,WNW,292,2.7,-999.0,67,-99.99,,,0.00,Acu-Link.com,2013-08-31 21:15:00,
2013-08-31 17:30:00,91.9,76.5,29.67,NE,45,1.1,-999.0,61,-99.99,,,0.00,Acu-Link.com,2013-08-31 21:30:00,
2013-08-31 17:46:00,95.9,79.2,29.67,SSE,157,0.0,-999.0,59,-99.99,,,0.00,Acu-Link.com,2013-08-31 21:46:00,
2013-08-31 18:01:00,91.2,75.8,29.67,NE,45,0.0,-999.0,61,-99.99,,,0.00,Acu-Link.com,2013-08-31 22:01:00,
2013-08-31 18:16:00,86.7,76.6,29.66,SE,135,0.0,-999.0,72,-99.99,,,0.00,Acu-Link.com,2013-08-31 22:16:00,
2013-08-31 18:31:00,85.3,75.2,29.66,SE,135,0.0,-999.0,72,-99.99,,,0.00,Acu-Link.com,2013-08-31 22:31:00,
2013-08-31 18:46:00,83.3,74.9,29.66,SE,135,0.0,-999.0,76,-99.99,,,0.00,Acu-Link.com,2013-08-31 22:46:00,
2013-08-31 19:01:00,81.7,74.9,29.67,ESE,112,0.0,-999.0,80,-99.99,,,0.00,Acu-Link.com,2013-08-31 23:01:00,
2013-08-31 19:16:00,80.8,74.4,29.67,SSE,157,0.0,-999.0,81,-99.99,,,0.00,Acu-Link.com,2013-08-31 23:16:00,
2013-08-31 19:31:00,80.1,73.4,29.67,ESE,112,0.0,-999.0,80,-99.99,,,0.00,Acu-Link.com,2013-08-31 23:31:00,
2013-08-31 19:46:00,79.5,73.5,29.68,SE,135,0.0,-999.0,82,-99.99,,,0.00,Acu-Link.com,2013-08-31 23:46:00,
2013-08-31 20:02:00,78.6,73.0,29.68,SSE,157,0.0,-999.0,83,-99.99,,,0.00,Acu-Link.com,2013-09-01 00:02:00,
2013-08-31 20:17:00,77.7,72.1,29.69,SSE,157,0.0,-999.0,83,-99.99,,,0.00,Acu-Link.com,2013-09-01 00:17:00,
2013-08-31 20:32:00,76.8,71.9,29.70,SSE,157,0.0,-999.0,85,-99.99,,,0.00,Acu-Link.com,2013-09-01 00:32:00,
2013-08-31 20:47:00,76.1,72.6,29.70,SE,135,0.0,-999.0,89,-99.99,,,0.00,Acu-Link.com,2013-09-01 00:47:00,
2013-08-31 21:02:00,75.6,72.5,29.71,SSE,157,0.0,-999.0,90,-99.99,,,0.00,Acu-Link.com,2013-09-01 01:02:00,
2013-08-31 21:17:00,75.0,72.2,29.72,NNW,337,0.0,-999.0,91,-99.99,,,0.00,Acu-Link.com,2013-09-01 01:17:00,
2013-08-31 21:32:00,74.8,72.3,29.72,South,180,0.0,-999.0,92,-99.99,,,0.00,Acu-Link.com,2013-09-01 01:32:00,
2013-08-31 21:47:00,74.7,72.2,29.71,SSE,157,0.0,-999.0,92,-99.99,,,0.00,Acu-Link.com,2013-09-01 01:47:00,
2013-08-31 22:02:00,74.5,72.7,29.71,NW,315,0.0,-999.0,94,-99.99,,,0.00,Acu-Link.com,2013-09-01 02:02:00,
2013-08-31 22:18:00,74.1,72.3,29.71,SE,135,0.0,-999.0,94,-99.99,,,0.00,Acu-Link.com,2013-09-01 02:18:00,
2013-08-31 22:33:00,74.1,72.9,29.71,SSE,157,0.0,-999.0,96,-99.99,,,0.00,Acu-Link.com,2013-09-01 02:33:00,
2013-08-31 22:48:00,74.1,72.9,29.71,WNW,292,0.0,-999.0,96,-99.99,,,0.00,Acu-Link.com,2013-09-01 02:48:00,
2013-08-31 23:03:00,73.9,73.0,29.72,NNW,337,0.0,-999.0,97,-99.99,,,0.00,Acu-Link.com,2013-09-01 03:03:00,
2013-08-31 23:18:00,73.8,72.9,29.72,South,180,0.0,-999.0,97,-99.99,,,0.00,Acu-Link.com,2013-09-01 03:18:00,
2013-08-31 23:33:00,73.8,72.9,29.72,SSE,157,0.0,-999.0,97,-99.99,,,0.00,Acu-Link.com,2013-09-01 03:33:00,
2013-08-31 23:48:00,73.6,73.0,29.72,SSE,157,0.0,-999.0,98,-99.99,,,0.00,Acu-Link.com,2013-09-01 03:48:00,